sat.trackr.live / text

‹ back to catalog

STARLINK-5570

NORAD 55433 · 2023-014AU

PAYLOAD ACTIVE UNKNOWN

§ Identity

Operator
Country
US
Launch date
2023-01-31
Launch site
AFWTR
Launch vehicle
Mass (kg)
RCS (m²)

Purposes: comms

External: N2YO · Heavens-Above · Gunter

§ Orbital elements

Epoch: 2026-05-24T17:52:57.980928Z

Period
96.11 min
Inclination
69.9994°
Eccentricity
0.0002648
Mean motion
14.98320917 rev/d
Perigee alt
570.2 km
Apogee alt
573.9 km
Semi-major
6,950.2 km
B*
-8.0057e-5
RAAN
272.5859°
Arg perigee
268.5194°
Mean anomaly
91.5661°
Rev number
18,246

§ Raw data

STARLINK-55701 55433U 23014AU  26144.74511552 -.00001048  00000+0 -80057-4 0  99952 55433  69.9994 272.5859 0002648 268.5194  91.5661 14.98320917182464

JSON: /api/v1/satellites/55433 · /tle

For live sub-satellite position, see the globe view (requires WebGL).

§ Visibility from observer

Set your observer location to see the next 7 days of passes ≥ 10°. The values pass through the URL so the page stays shareable.

No JS? Fill the form by hand. The geolocation button needs JavaScript.